GW6586 Weather Reports


Display with metric or nautical units.
time (UTC)temp
F
wind
direction
speed
MPH
gust
MPH
rain 1hr
in
rain 24hr
in
rain mn
in
humidity
%
barometer
mb
20260506154519 60 121 6.0 11.0 0.00 0.00 0.00 61 1029.4
20260506151513 61 87 6.0 12.0 0.00 0.00 0.00 59 1029.4
20260506144530 61 48 7.0 12.0 0.00 0.00 0.00 59 1029.5
20260506143016 61 126 7.0 11.0 0.00 0.00 0.00 60 1029.4
20260506141524 61 119 5.0 9.0 0.00 0.00 0.00 60 1029.3
20260506140027 61 145 6.0 10.0 0.00 0.00 0.00 59 1029.3
20260506134520 61 117 6.0 9.0 0.00 0.00 0.00 60 1029.3
20260506133024 61 87 6.0 9.0 0.00 0.00 0.00 60 1029.3
20260506131511 62 137 5.0 12.0 0.00 0.00 0.00 59 1029.2
20260506130020 62 98 6.0 10.0 0.00 0.00 0.00 60 1029.2
20260506124527 62 121 6.0 11.0 0.00 0.00 0.00 60 1029.1
20260506123016 62 117 6.0 10.0 0.00 0.00 0.00 63 1029.0
20260506121524 62 145 4.0 7.0 0.00 0.00 0.00 64 1028.9
20260506120036 62 142 4.0 5.0 0.00 0.00 0.00 63 1028.9
20260506114519 63 148 4.0 7.0 0.00 0.00 0.00 62 1028.8
20260506113026 63 136 4.0 7.0 0.00 0.00 0.00 61 1028.8
20260506111528 63 140 3.0 6.0 0.00 0.00 0.00 61 1028.5
20260506110025 64 134 4.0 7.0 0.00 0.00 0.00 60 1028.3
20260506104525 64 139 4.0 8.0 0.00 0.00 0.00 60 1028.3
20260506103027 65 138 4.0 8.0 0.00 0.00 0.00 59 1028.3
20260506101526 65 137 4.0 8.0 0.00 0.00 0.00 58 1028.2
20260506100013 66 132 5.0 9.0 0.00 0.00 0.00 57 1028.1
20260506093006 66 155 5.0 8.0 0.00 0.00 0.00 57 1027.9
20260506091518 67 156 3.0 7.0 0.00 0.00 0.00 56 1027.7
20260506090020 67 150 4.0 8.0 0.00 0.00 0.00 55 1027.6
20260506084510 68 140 5.0 9.0 0.00 0.00 0.00 55 1027.6
20260506083018 68 135 6.0 10.0 0.00 0.00 0.00 54 1027.6
20260506081505 69 131 6.0 12.0 0.00 0.00 0.00 54 1027.6
20260506071519 70 117 8.0 15.0 0.00 0.00 0.00 52 1027.3
20260506061507 72 131 6.0 14.0 0.00 0.00 0.00 51 1027.4
20260506044522 71 72 6.0 13.0 0.00 0.00 0.00 53 1027.8
20260506041528 70 126 4.0 15.0 0.00 0.00 0.00 54 1028.2
20260506040018 70 50 7.0 15.0 0.00 0.00 0.00 54 1028.4
20260506034526 69 54 8.0 16.0 0.00 0.00 0.00 55 1028.5
20260506033014 69 121 7.0 14.0 0.00 0.00 0.00 56 1028.6
20260506031525 68 90 7.0 14.0 0.00 0.00 0.00 58 1028.7
20260506030026 67 162 8.0 14.0 0.00 0.00 0.00 59 1028.7
20260506024521 66 90 8.0 15.0 0.00 0.00 0.00 61 1028.8
20260506023023 65 98 8.0 13.0 0.00 0.00 0.00 62 1028.9
20260506021526 64 93 10.0 16.0 0.00 0.00 0.00 63 1029.0
20260506020020 63 103 12.0 18.0 0.00 0.00 0.00 65 1028.9
20260506014527 63 104 8.0 15.0 0.00 0.00 0.00 65 1029.0
20260506013013 62 60 11.0 20.0 0.00 0.00 0.00 67 1029.0
20260506011528 61 105 12.0 19.0 0.00 0.00 0.00 68 1029.0
20260506010011 60 111 12.0 18.0 0.00 0.00 0.00 69 1028.8
20260506004519 60 84 12.0 17.0 0.00 0.00 0.00 71 1028.6
20260506003024 59 90 11.0 18.0 0.00 0.00 0.00 72 1028.5
20260506001516 58 146 11.0 17.0 0.00 0.00 0.00 73 1028.4
20260506000022 57 103 8.0 15.0 0.00 0.00 0.00 75 1028.4
20260505234600 56 102 7.0 15.0 0.00 0.00 0.00 77 1028.2
20260505231524 54 108 9.0 15.0 0.00 0.00 0.00 79 1027.7
20260505230014 54 117 8.0 14.0 0.00 0.00 0.00 79 1027.7
20260505224528 54 88 9.0 14.0 0.00 0.00 0.00 77 1027.3
20260505223024 55 117 10.0 18.0 0.00 0.00 0.00 77 1027.1
20260505221518 55 113 11.0 16.0 0.00 0.00 0.00 78 1027.0
20260505220008 54 100 10.0 15.0 0.00 0.00 0.00 78 1027.0
20260505214519 54 109 8.0 14.0 0.00 0.00 0.00 78 1026.9
20260505213023 54 124 9.0 14.0 0.00 0.00 0.00 77 1026.8
20260505211507 55 112 10.0 14.0 0.00 0.00 0.00 77 1026.8
20260505210022 55 107 9.0 14.0 0.00 0.00 0.00 77 1026.7
20260505204503 55 118 7.0 14.0 0.00 0.00 0.00 76 1026.6
20260505201522 56 93 10.0 17.0 0.00 0.00 0.00 74 1026.6
20260505200012 56 125 9.0 16.0 0.00 0.00 0.00 74 1026.7
20260505194516 56 119 9.0 16.0 0.00 0.00 0.00 73 1026.6
20260505193023 56 144 10.0 16.0 0.00 0.00 0.00 73 1026.5
20260505191511 56 132 10.0 14.0 0.00 0.00 0.00 72 1026.6
20260505190017 56 128 8.0 12.0 0.00 0.00 0.00 72 1026.5
20260505184528 56 138 7.0 11.0 0.00 0.00 0.00 71 1026.6
20260505183034 57 107 7.0 12.0 0.00 0.00 0.00 70 1026.7
20260505181525 57 118 7.0 12.0 0.00 0.00 0.00 69 1026.6
20260505180008 58 113 8.0 12.0 0.00 0.00 0.00 68 1026.4
20260505174517 59 117 10.0 18.0 0.00 0.00 0.00 66 1026.3
20260505173023 59 126 11.0 17.0 0.00 0.00 0.00 66 1026.3
20260505171513 59 124 11.0 16.0 0.00 0.00 0.00 66 1026.2
20260505170019 60 142 10.0 20.0 0.00 0.00 0.00 65 1026.1
20260505164525 59 108 10.0 16.0 0.00 0.00 0.00 66 1026.2
20260505163014 59 130 8.0 14.0 0.00 0.00 0.00 67 1026.2
20260505161527 59 138 8.0 16.0 0.00 0.00 0.00 67 1026.1